Location: College Rock
(37.2713°N, 119.1740°W)
Time: 13:01:10
(UTC+00:00)

Cosmos 2026 Rocket - Pass Details

Date: 29 October 2020
Orbit: 938 x 1002 km, 82.9° (Epoch: 01 December)

Event Time Altitude Azimuth Distance (km) Brightness Sun altitude
Rises 12:57:43 0° 193° (SSW) 3,701 7.0 -16.7°
Reaches altitude 10° 13:00:15 10° 196° (SSW) 2,760 6.3 -16.2°
Maximum altitude 13:06:34 67° 278° (W) 1,082 4.0 -14.9°
Drops below altitude 10° 13:12:55 10° 1° (N) 2,776 6.3 -13.7°
Sets 13:15:29 0° 4° (N) 3,725 7.0 -13.1°
